Flag Weather past 2 weeks in Thunder Bay, Ontario, Canada

Now
21 °F

Light snow. Overcast.


Feels Like: 16 °F
Forecast: 19 / 33 °F
Wind: 3 mph from North

Location: Thunder Bay

Current Time: Nov 29, 2014 at 2:53:22 AM

Latest Report: Nov 29, 2014 at 2:00 AM


Visibility: 2 mi

Pressure: 29.79 "Hg

Humidity: 93%

Dew point: 19 °F

Location of Thunder BayLocation

Historic Weather in Thunder Bay — Graph

°F

Thunder Bay temperature yesterday

Maximum temperature yesterday: 19 °F (at 11:00 PM)
Minimum temperature yesterday: -4 °F (at 12:00 AM)
Average temperature yesterday: 6 °F

Past Weeks' High & Low Weather Summary

 TemperatureHumidityPressure
High39 °F (Nov 23, 1:00 PM)100% (Nov 23, 7:04 AM)30.52 "Hg (Nov 23, 7:04 AM)
Low-11 °F (Nov 27, 7:00 AM)31% (Nov 16, 1:00 PM)29.22 "Hg (Nov 24, 5:45 AM)
Average15 °F77%29.91 "Hg
* Reported Nov 14 1:00 AM — Nov 29 1:00 AM, Thunder Bay, Weather by CustomWeather, © 2014

Note: Actual official high and low records may vary slightly from our data, if they occured in-between our weather recording intervals... More about our weather records

Advertising

Thunder Bay weather history for previous 24 hours

 ConditionsComfort  
Time TempWeatherWind HumidityBarometerVisibility
1:00 AM
Nov 29
21 °FLight snow. Mostly cloudy.13 mph93%29.82 "Hg6 mi
12:00 AM21 °FLight snow. Mostly cloudy.14 mph86%29.87 "Hg6 mi
11:00 PM
Nov 28
19 °FLight snow. Overcast.12 mph86%29.90 "Hg6 mi
10:00 PM16 °FLight snow. Overcast.7 mph79%29.94 "Hg6 mi
9:00 PM16 °FLight snow. Overcast.9 mph79%29.98 "Hg6 mi
8:00 PM16 °FLight snow. Overcast.10 mph86%30.01 "Hg5 mi
7:00 PM18 °FLight snow. Mostly cloudy.10 mph86%30.02 "Hg10 mi
6:00 PM14 °FOvercast.5 mph85%30.03 "Hg15 mi
5:00 PM16 °FMostly cloudy.3 mph73%30.07 "Hg20 mi
4:00 PM16 °FBroken clouds.5 mph73%30.06 "Hg20 mi
3:00 PM16 °FPartly sunny.5 mph62%30.08 "Hg20 mi
2:00 PM14 °FOvercast.No wind57%30.10 "Hg20 mi
1:00 PM10 °FPartly sunny.2 mph61%30.12 "Hg20 mi
12:00 PM7 °FPartly sunny.3 mph66%30.16 "Hg20 mi
11:00 AM3 °FPartly sunny.3 mph78%30.19 "Hg20 mi
10:00 AM0 °FPartly sunny.3 mph84%30.20 "Hg20 mi
9:00 AM-4 °FPartly sunny.5 mph77%30.22 "Hg20 mi
8:00 AM-2 °FPassing clouds.5 mph84%30.23 "Hg15 mi
7:00 AM-2 °FOvercast.3 mph84%30.26 "Hg15 mi
6:00 AM-4 °FPartly cloudy.3 mph84%30.27 "Hg15 mi
5:00 AM-4 °FPassing clouds.3 mph84%30.28 "Hg15 mi
4:00 AM-4 °FPassing clouds.5 mph84%30.31 "Hg15 mi
3:00 AM-2 °FPassing clouds.5 mph84%30.33 "Hg15 mi
2:00 AM-2 °FPassing clouds.5 mph84%30.33 "Hg15 mi
Weather by CustomWeather, © 2014

See weather overviewHow to use our weather pages